[[{"header":{"parameterUnit":"m.s-1","parameterCategory":1,"la1":30.2991,"la2":30.254,"lo1":-89.0895,"lo2":-89.0444,"dy":0.0017,"dx":0.0017,"nx":28,"ny":28,"refTime":"2023-09-20T09:00:00:Z","depth":0,"parameterNumber":2,"parameterNumberName":"U-component_of_WINDS"},"data":[0,0,0,0,0,0,0,0,0,0,0,0,0,0,0,0,0,0,0,0,0,0,0,0,0,0,0,0,0,0,0,0,0,0,0,0,0,0,0,0,0,0,0,0,0,0,0,0,0,0,0,0,0,0,0,0,0,0,-5.9242,-5.9243,0,-5.9318,-5.9319,-5.932,-5.9219,-5.9216,-5.9212,-5.9209,-5.9281,-5.9286,-5.9291,0,0,0,0,0,0,0,0,0,0,0,0,0,-5.9003,-5.9008,-5.9242,-5.9243,-5.9244,-5.9318,-5.9319,-5.932,-5.922,-5.9215,-5.9211,-5.9207,-5.9279,-5.9285,-5.9292,0,0,0,0,0,0,0,0,0,0,0,0,0,-5.9096,-5.901,-5.9242,-5.9203,-5.92,-5.9318,-5.9319,-5.932,-5.9221,-5.9215,-5.921,-5.9205,-5.9277,-5.9285,-5.9292,-5.945,0,0,-5.9317,-5.932,0,0,0,0,0,0,0,0,-5.9091,-5.9105,-5.9208,-5.9206,-5.9203,-5.9254,-5.9261,-5.9364,-5.9222,-5.9213,-5.9208,-5.9202,-5.9276,-5.9283,-5.9309,-5.9453,-5.9456,-5.9317,-5.9322,-5.9326,-5.9328,0,0,0,0,0,0,0,-5.9084,-5.9101,-5.9272,-5.9209,-5.9206,-5.918,-5.9187,-5.928,-5.9273,-5.9213,-5.9206,-5.9217,-5.9273,-5.9302,-5.931,-5.9458,-5.9317,-5.9324,-5.9329,-5.9332,-5.9732,-5.9738,0,0,0,0,0,0,-5.9083,-5.9096,-5.9269,-5.9274,-5.9133,-5.9188,-5.9196,-5.9243,-5.9272,-5.9272,-5.9221,-5.9212,-5.9291,-5.9301,-5.9313,-5.9497,-5.9326,-5.9333,-5.9338,-5.9727,-5.9734,-5.974,0,0,0,0,0,0,-5.9079,-5.91,-5.9266,-5.9183,-5.9202,-5.9198,-5.9251,-5.9247,-5.9276,-5.9279,-5.9276,-5.9252,-5.9287,-5.9301,-5.9416,-5.9498,-5.9337,-5.9344,-5.972,-5.9729,-5.9737,-5.9868,0,0,0,0,0,0,-5.9072,-5.9099,-5.916,-5.9186,-5.9207,-5.9371,-5.9256,-5.9253,-5.929,-5.9279,-5.9307,-5.9306,-5.9284,-5.9405,-5.9424,-5.9506,-5.935,-5.9712,-5.9724,-5.9734,-5.9856,-5.988,-5.99,0,0,0,0,0,-5.9064,-5.9193,-5.9164,-5.9185,-5.9284,-5.9376,-5.9388,-5.9362,-5.9298,-5.9357,-5.9359,-5.9305,-5.9487,-5.9418,-5.9439,-5.9524,-5.9707,-5.972,-5.9733,-5.9846,-5.9875,-5.99,0,0,0,0,0,0,-5.9174,-5.9195,-5.9163,-5.9304,-5.934,-5.9359,-5.9434,-5.9394,-5.9446,-5.9432,-5.9396,-5.9403,-5.9526,-5.9537,-5.9459,-5.9677,-5.9586,-5.9604,-5.9664,-5.9692,-5.9714,-5.9707,-5.9357,0,0,0,0,0,-5.9216,-5.9291,-5.9304,-5.9427,-5.9447,-5.9438,-5.9477,-5.9454,-5.9488,-5.9501,-5.9511,-5.9545,-5.9609,-5.9652,-5.9711,-5.9859,-5.9861,-5.9927,-5.9949,-5.9968,-5.9982,-6.0058,-6.0087,-5.9783,-5.9783,-5.9783,0,0,-5.93,-5.9321,-5.937,-5.945,-5.9474,-5.955,-5.9451,-5.9536,-5.9591,-5.9513,-5.9622,-5.9632,-5.9666,-5.9798,-5.9856,-5.9811,-6.0068,-5.9984,-5.9999,-6.0004,-6.0075,-6.0104,-6.0129,-5.9792,-5.9791,-5.9789,0,0,-5.9492,-5.9518,-5.9622,-5.9649,-5.9688,-5.9682,-5.9707,-5.9733,-5.9737,-5.9847,-5.979,-5.9854,-5.9967,-5.9993,-6.0021,-6.0226,-6.0177,-6.0247,-6.036,-6.0435,-6.0459,-6.048,-6.055,-6.0576,-6.0262,-6.0262,-6.0263,0,-5.9592,-5.9706,-5.968,-5.9769,-5.9805,-5.9741,-5.9845,-5.9872,-5.9928,-5.9953,-5.9903,-6.0042,-6.0061,-6.0196,-6.0246,-6.0273,-6.0298,-6.0241,-6.0458,-6.0479,-6.0498,-6.0564,-6.0591,-6.027,-6.0269,-6.0269,-6.0268,0,-5.9825,-5.9905,-5.9985,-6.0042,-6.0087,-6.0183,-6.0169,-6.0218,-6.0192,-6.019,-6.0302,-6.0323,-6.0385,-6.0417,-6.0391,-6.0549,-6.0519,-6.0465,-6.0371,-6.0535,-6.0597,-6.0622,-6.0282,-6.0279,-6.0276,-6.0274,0,0,-6.0085,-6.0129,-6.0158,-6.0182,-6.0222,-6.0282,-6.0376,-6.0438,-6.0479,-6.0521,-6.0595,-6.0693,-6.0643,-6.0675,-6.0652,-6.0719,-6.0876,-6.0655,-6.0656,-6.0692,-6.1047,-6.1085,-6.1115,-6.0846,-6.0851,-6.0855,-6.1043,0,-6.0275,-6.0437,-6.0416,-6.0571,-6.0643,-6.0585,-6.0666,-6.0698,-6.0699,-6.0759,-6.076,-6.0829,-6.0759,-6.0778,-6.0842,-6.0844,-6.0946,-6.083,-6.0912,-6.0915,-6.0901,-6.1148,-6.1188,-6.1365,-6.1067,-6.1071,-6.1074,0,-6.0517,-6.0569,-6.0731,-6.0759,-6.0788,-6.0861,-6.0916,-6.0976,-6.1011,-6.1007,-6.1045,-6.101,-6.1101,-6.1011,-6.1134,-6.1055,-6.1088,-6.1095,-6.1101,-6.1104,-6.1001,-6.1154,-6.1421,-6.1446,-6.1112,-6.1109,-6.1107,0,-6.0686,-6.0797,-6.0907,-6.0931,-6.0967,-6.102,-6.1037,-6.1067,-6.1105,-6.1154,-6.1178,-6.1236,-6.1267,-6.1312,-6.1294,-6.123,-6.142,-6.1328,-6.1416,-6.1417,-6.1455,-6.1452,-6.1727,-6.1483,-6.1483,-6.1482,-6.1482,0,-6.0897,-6.0998,-6.0984,-6.1051,-6.1162,-6.1138,-6.1247,-6.1257,-6.1284,-6.1351,-6.1306,-6.1369,-6.1343,-6.1404,-6.1391,-6.1493,-6.1509,-6.1506,-6.15,-6.1508,-6.1508,-6.1525,-6.1511,-6.1489,-6.1488,-6.1487,-6.1485,0,-6.1103,-6.1098,-6.1214,-6.124,-6.1249,-6.1329,-6.135,-6.1412,-6.1412,-6.1497,-6.1516,-6.1514,-6.1584,-6.1572,-6.1649,-6.164,-6.1767,-6.1748,-6.1755,-6.1749,-6.1837,-6.1828,-6.213,-6.2167,-6.1903,-6.1906,-6.1908,0,-6.1236,-6.1312,-6.1347,-6.139,-6.1411,-6.148,-6.152,-6.15,-6.1543,-6.1589,-6.1645,-6.1712,-6.1763,-6.1878,-6.1882,-6.194,-6.192,-6.2022,-6.1928,-6.1933,-6.1917,-6.1911,-6.1917,-6.2039,-6.2042,-6.2045,-6.2047,0,-6.1472,-6.1466,-6.1526,-6.1586,-6.1636,-6.1682,-6.1723,-6.176,-6.1743,-6.1793,-6.1865,-6.1906,-6.1986,-6.2051,-6.2106,-6.2121,-6.2081,-6.2078,-6.21,-6.2106,-6.2106,-6.2104,-6.1802,-6.2069,-6.2067,-6.2065,-6.2064,-6.2063,-6.1642,-6.1707,-6.1741,-6.181,-6.1839,-6.1879,-6.1939,-6.1947,-6.2007,-6.2071,-6.2056,-6.2137,-6.2169,-6.2239,-6.2261,-6.2322,-6.2284,-6.2318,-6.2326,-6.2333,-6.2342,-6.21,-6.2333,-6.2332,-6.2331,-6.2331,-6.233,0,-6.1872,-6.1892,-6.1956,-6.2016,-6.207,-6.2031,-6.2074,-6.2121,-6.2193,-6.2228,-6.2281,-6.2363,-6.2427,-6.2437,-6.2497,-6.2544,-6.2527,-6.256,-6.2554,-6.2558,-6.2375,-6.2347,-6.2573,-6.2573,-6.2573,-6.2573,-6.2573,-6.2573,-6.1998,-6.2104,-6.2103,-6.2223,-6.2242,-6.2322,-6.235,-6.2386,-6.2413,-6.2507,-6.2561,-6.2569,-6.2593,-6.2655,-6.2711,-6.2712,-6.2734,-6.2774,-6.2768,-6.2596,-6.2571,-6.2548,-6.2522,-6.2781,-6.2781,-6.2946,-6.2947,-6.2948]},{"header":{"parameterUnit":"m.s-1","parameterCategory":1,"la1":30.2991,"la2":30.254,"lo1":-89.0895,"lo2":-89.0444,"dy":0.0017,"dx":0.0017,"nx":28,"ny":28,"refTime":"2023-09-20T09:00:00:Z","depth":0,"parameterNumber":3,"parameterNumberName":"V-component_of_WINDS"},"data":[0,0,0,0,0,0,0,0,0,0,0,0,0,0,0,0,0,0,0,0,0,0,0,0,0,0,0,0,0,0,0,0,0,0,0,0,0,0,0,0,0,0,0,0,0,0,0,0,0,0,0,0,0,0,0,0,0,0,2.0526,2.0527,0,2.0615,2.0616,2.0617,2.0591,2.0589,2.0587,2.0585,2.0672,2.0676,2.068,0,0,0,0,0,0,0,0,0,0,0,0,0,2.0328,2.0332,2.0526,2.0527,2.0528,2.0615,2.0616,2.0617,2.0591,2.0589,2.0586,2.0584,2.0671,2.0675,2.068,0,0,0,0,0,0,0,0,0,0,0,0,0,2.0415,2.0333,2.0525,2.0525,2.0526,2.0615,2.0616,2.0618,2.0591,2.0589,2.0586,2.0583,2.0669,2.0675,2.0681,2.0774,0,0,2.0699,2.0702,0,0,0,0,0,0,0,0,2.041,2.0423,2.0524,2.0525,2.0527,2.0589,2.0578,2.067,2.0592,2.0566,2.0585,2.0582,2.0646,2.0654,2.0677,2.0778,2.0782,2.07,2.0704,2.0706,2.0708,0,0,0,0,0,0,0,2.0404,2.0419,2.0561,2.0526,2.0527,2.052,2.0529,2.0596,2.0621,2.0568,2.0567,2.0578,2.0646,2.0671,2.0679,2.0783,2.07,2.0705,2.0709,2.0711,2.0965,2.0968,0,0,0,0,0,0,2.0398,2.0414,2.0558,2.0564,2.0461,2.0525,2.0536,2.0572,2.062,2.0625,2.058,2.0576,2.0662,2.0672,2.0682,2.0794,2.0706,2.0712,2.0715,2.0962,2.0966,2.0969,0,0,0,0,0,0,2.0394,2.0411,2.0554,2.0488,2.0506,2.0532,2.0572,2.0575,2.0599,2.0629,2.0633,2.0601,2.066,2.0673,2.0752,2.0796,2.0715,2.072,2.0959,2.0963,2.0968,2.1019,0,0,0,0,0,0,2.0388,2.041,2.0446,2.0489,2.051,2.0624,2.0575,2.0579,2.0611,2.0606,2.0649,2.0654,2.0659,2.0743,2.0758,2.0803,2.0725,2.0955,2.0961,2.0966,2.1013,2.1024,2.1034,0,0,0,0,0,2.0381,2.0456,2.0448,2.0466,2.0556,2.0627,2.0638,2.0644,2.0614,2.065,2.067,2.0652,2.0789,2.0751,2.0767,2.0816,2.0952,2.0959,2.0966,2.1008,2.1022,2.1034,0,0,0,0,0,0,2.0415,2.0461,2.0453,2.0544,2.0582,2.0622,2.0668,2.0658,2.0704,2.0698,2.0702,2.0712,2.0793,2.0812,2.0768,2.0908,2.0866,2.0877,2.0893,2.0906,2.0916,2.0909,2.073,0,0,0,0,0,2.0433,2.0488,2.0525,2.0602,2.0621,2.0642,2.0673,2.0674,2.0713,2.0728,2.0753,2.079,2.0841,2.0875,2.0924,2.1016,2.1025,2.1057,2.1068,2.1077,2.1085,2.1136,2.1151,2.0992,2.0992,2.0992,0,0,2.047,2.0503,2.0537,2.0609,2.0639,2.0695,2.0655,2.0715,2.0757,2.0737,2.0813,2.0833,2.0874,2.096,2.0999,2.0979,2.1131,2.1086,2.1092,2.1096,2.1145,2.116,2.1173,2.0997,2.0996,2.0995,0,0,2.0567,2.0598,2.0665,2.0696,2.0742,2.0755,2.0772,2.0814,2.0827,2.0904,2.0891,2.0939,2.1028,2.1058,2.1085,2.1196,2.1182,2.1212,2.1267,2.1316,2.1328,2.1339,2.1379,2.1393,2.1221,2.1221,2.1221,0,2.0607,2.0693,2.07,2.0763,2.0795,2.0782,2.085,2.0879,2.0938,2.096,2.0937,2.1049,2.1075,2.1169,2.1196,2.1219,2.1237,2.1206,2.1326,2.1337,2.1348,2.1385,2.14,2.1224,2.1224,2.1223,2.1223,0,2.074,2.0799,2.0848,2.0908,2.0945,2.101,2.1026,2.1064,2.1063,2.1078,2.1157,2.1189,2.1245,2.1267,2.1266,2.1361,2.1347,2.1325,2.1282,2.1366,2.1401,2.1416,2.1229,2.1228,2.1227,2.1226,0,0,2.0858,2.0923,2.094,2.0968,2.1019,2.1064,2.1129,2.1185,2.1217,2.1258,2.1312,2.1388,2.1369,2.14,2.1402,2.1445,2.1531,2.1418,2.1419,2.1438,2.1637,2.1653,2.1669,2.1523,2.1526,2.1528,2.1634,0,2.0958,2.1073,2.1083,2.1186,2.1241,2.123,2.1286,2.1323,2.134,2.1388,2.1406,2.146,2.1431,2.1449,2.1492,2.1512,2.1571,2.1504,2.1571,2.1573,2.156,2.1688,2.1704,2.1802,2.1647,2.165,2.1652,0,2.1091,2.1139,2.1248,2.1293,2.1316,2.1366,2.1419,2.1466,2.1507,2.1517,2.1553,2.1549,2.1614,2.1571,2.166,2.1615,2.1643,2.1657,2.1661,2.1666,2.1617,2.1696,2.1834,2.1848,2.1673,2.1672,2.167,0,2.1166,2.1258,2.1335,2.1359,2.1413,2.1448,2.1472,2.1511,2.1545,2.1591,2.1613,2.1665,2.1694,2.1734,2.1745,2.1712,2.1834,2.1791,2.1842,2.1842,2.1867,2.1865,2.2011,2.1887,2.1887,2.1887,2.1886,0,2.1277,2.1344,2.137,2.1417,2.1492,2.1502,2.1575,2.1597,2.1632,2.1683,2.1677,2.1724,2.1736,2.1785,2.1794,2.1867,2.1879,2.1888,2.1889,2.1888,2.1887,2.1905,2.1899,2.1891,2.189,2.1889,2.1888,0,2.1372,2.1392,2.1476,2.1521,2.1534,2.1587,2.1625,2.1671,2.1687,2.1752,2.1767,2.1793,2.1851,2.1867,2.1935,2.1941,2.2027,2.2022,2.2013,2.2013,2.2063,2.2058,2.2225,2.2247,2.211,2.2111,2.2112,0,2.1441,2.1493,2.1545,2.1579,2.1605,2.1661,2.1696,2.1708,2.1745,2.1797,2.1836,2.1894,2.194,2.2034,2.2057,2.211,2.2106,2.2161,2.2114,2.2111,2.2106,2.2103,2.2108,2.2169,2.2171,2.2172,2.2173,0,2.1561,2.1569,2.1621,2.1677,2.172,2.1764,2.1806,2.1834,2.1853,2.1894,2.1954,2.1991,2.2063,2.212,2.2173,2.2196,2.2188,2.2188,2.2203,2.2201,2.2194,2.2198,2.2037,2.2184,2.2183,2.2182,2.2181,2.2181,2.1645,2.1691,2.1735,2.1793,2.1827,2.1867,2.1912,2.1936,2.1987,2.2048,2.2052,2.2117,2.2158,2.223,2.2256,2.2307,2.229,2.2311,2.2316,2.2321,2.2325,2.2187,2.2316,2.2316,2.2316,2.2316,2.2315,0,2.1765,2.1794,2.1847,2.1908,2.1953,2.1944,2.199,2.2029,2.2087,2.2127,2.2174,2.2244,2.23,2.2329,2.2384,2.2419,2.2417,2.2433,2.243,2.2436,2.2337,2.2319,2.2434,2.2434,2.2434,2.2434,2.2434,2.2434,2.1832,2.191,2.1923,2.2017,2.2044,2.211,2.2138,2.2174,2.2206,2.2285,2.2333,2.2352,2.2388,2.2446,2.2497,2.2504,2.2524,2.2543,2.2547,2.2455,2.2442,2.2431,2.2414,2.2547,2.2547,2.2641,2.2642,2.2643]}]]